Time_in_sec,Latitude,Longitude,Altitude,Nbsat_max_qualitysignal,Nbsat_locked,valid_data
1323442697.65348125,47.37540817,8.55018234,488.43310547,0,10,1
1323442816.90566182,47.37532425,8.54998112,508.33972168,6,9,1
1323442816.95354199,47.37532425,8.54998112,508.36437988,6,9,1
1323442817.00469518,47.37532425,8.54998207,508.21060181,6,9,1
1323442817.05351996,47.37532425,8.54998302,508.23446655,6,9,1
1323442817.10548806,47.37532425,8.54998302,508.25830078,6,9,1
1323442817.15254664,47.37532425,8.54998302,508.28210449,6,9,1
1323442817.21355081,47.37532425,8.54998302,508.30590820,6,9,1
1323442817.25353932,47.37532425,8.54998398,508.15051270,6,9,1
1323442817.30554152,47.37532425,8.54998398,508.16891479,6,9,1
1323442817.35352826,47.37532425,8.54998398,508.19189453,6,9,1
1323442817.40462875,47.37532425,8.54998493,508.21481323,6,9,1
1323442817.45353389,47.37532425,8.54998493,508.23770142,6,9,1
1323442817.50556374,47.37532425,8.54998589,508.07467651,6,9,1
1323442817.55263734,47.37532425,8.54998684,508.09677124,6,9,1
1323442817.60154915,47.37532425,8.54998684,508.11883545,6,9,1
1323442817.65345287,47.37532425,8.54998684,508.14086914,6,9,1
1323442817.70856881,47.37532425,8.54998684,508.16287231,6,9,1
1323442817.75363064,47.37532806,8.54998970,507.98635864,6,9,1
1323442817.80152631,47.37532806,8.54998970,508.00744629,6,9,1
1323442817.85355592,47.37532806,8.54999065,508.02853394,6,9,1
1323442817.90540600,47.37532806,8.54999065,508.04959106,6,9,1
1323442817.95355964,47.37532806,8.54999065,508.07061768,6,9,1
1323442818.00154710,47.37532806,8.54999352,507.90386963,6,9,1
1323442818.05352259,47.37532806,8.54999256,507.91302490,6,9,1
1323442818.10863495,47.37532806,8.54999256,507.93310547,6,9,1
1323442818.15350151,47.37532806,8.54999256,507.95312500,6,9,1
1323442818.20150995,47.37532806,8.54999352,507.97311401,6,9,1
1323442818.25353527,47.37533188,8.54999542,507.80102539,6,9,1
1323442818.30127883,47.37532806,8.54999352,507.79995728,6,9,1
1323442818.35328126,47.37532806,8.54999447,507.81896973,6,9,1
1323442818.40148687,47.37532806,8.54999447,507.83795166,6,9,1
1323442818.45249939,47.37533188,8.54999447,507.85690308,6,9,1
1323442818.50550556,47.37533188,8.54999638,507.66641235,6,9,1
1323442818.55349112,47.37533188,8.54999638,507.68444824,6,9,1
1323442818.60455418,47.37533188,8.54999733,507.70245361,6,9,1
1323442818.65250659,47.37533188,8.54999733,507.72042847,6,9,1
1323442818.70152521,47.37533188,8.54999733,507.73837280,6,9,1
1323442818.75251031,47.37533188,8.55000019,507.55416870,6,9,1
1323442818.80548072,47.37533188,8.55000019,507.55294800,6,9,1
1323442818.85302329,47.37533188,8.55000019,507.56988525,6,9,1
1323442818.90463257,47.37533188,8.55000019,507.58676147,6,9,1
1323442818.95351934,47.37533188,8.55000114,507.60360718,6,9,1
1323442819.00554252,47.37533569,8.55000210,507.39440918,6,9,1
1323442819.05354881,47.37533569,8.55000210,507.41024780,6,9,1
1323442819.10501647,47.37533569,8.55000210,507.42605591,6,9,1
1323442819.15365291,47.37533569,8.55000305,507.44183350,6,9,1
1323442819.21357775,47.37533569,8.55000305,507.45758057,6,9,1
1323442819.25252795,47.37533569,8.55000401,507.24832153,6,9,1
1323442819.30500174,47.37533569,8.55000496,507.26010132,6,9,1
1323442819.35351372,47.37533569,8.55000496,507.27481079,6,9,1
1323442819.40564990,47.37533569,8.55000496,507.28948975,6,9,1
1323442819.45354533,47.37533569,8.55000591,507.30416870,6,9,1
1323442819.50565052,47.37533951,8.55000687,507.08193970,6,9,1
1323442819.55285406,47.37533951,8.55000782,507.09558105,6,9,1
1323442819.60551238,47.37533951,8.55000782,507.10919189,6,9,1
1323442819.65287066,47.37533951,8.55000782,507.12274170,6,9,1
1323442819.70563507,47.37533951,8.55000877,507.13629150,6,9,1
1323442819.75281692,47.37534332,8.55001068,506.92300415,6,9,1
1323442819.80485320,47.37534332,8.55001163,506.91870117,6,9,1
1323442819.85353971,47.37534332,8.55001163,506.93118286,6,9,1
1323442819.90554953,47.37534332,8.55001163,506.94363403,6,9,1
1323442819.95263743,47.37534332,8.55001259,506.95605469,6,9,1
1323442820.00548387,47.37534332,8.55001545,506.74703979,6,9,1
1323442820.05273652,47.37534332,8.55001545,506.74371338,6,9,1
1323442820.10169220,47.37534332,8.55001545,506.75506592,6,9,1
1323442820.15521312,47.37534332,8.55001640,506.76641846,6,9,1
1323442820.20453477,47.37534332,8.55001640,506.77770996,6,9,1
1323442820.25354290,47.37534714,8.55001926,506.54971313,6,9,1
1323442820.30551529,47.37534714,8.55002022,506.55999756,6,9,1
1323442820.35250306,47.37534714,8.55002022,506.57025146,6,9,1
1323442820.40186930,47.37534714,8.55002117,506.58044434,6,9,1
1323442820.45353031,47.37534714,8.55002117,506.59063721,6,9,1
1323442820.50168109,47.37534714,8.55002403,506.37615967,6,9,1
1323442820.55258989,47.37534714,8.55002403,506.36785889,6,9,1
1323442820.60155797,47.37534714,8.55002499,506.37695312,6,9,1
1323442820.65366268,47.37534714,8.55002499,506.38604736,6,9,1
1323442820.70549560,47.37534714,8.55002499,506.39508057,6,9,1
1323442820.75657535,47.37535095,8.55002785,506.17459106,6,9,1
1323442820.80173969,47.37535095,8.55002785,506.16510010,6,9,1
1323442820.85351777,47.37535095,8.55002785,506.17306519,6,9,1
1323442820.90552831,47.37535095,8.55002880,506.18096924,6,9,1
1323442820.95350170,47.37535095,8.55002880,506.18884277,7,9,1
1323442821.00531888,47.37535095,8.55003071,505.94754028,7,9,1
1323442821.05352163,47.37535095,8.55003071,505.95431519,7,9,1
1323442821.10552788,47.37535095,8.55003166,505.96105957,7,9,1
1323442821.15375781,47.37535095,8.55003166,505.96777344,7,9,1
1323442821.20174503,47.37535095,8.55003262,505.97445679,7,9,1
1323442821.25343966,47.37535095,8.55003548,505.74719238,7,9,1
1323442821.30555415,47.37535095,8.55003452,505.74169922,7,9,1
1323442821.35352015,47.37535095,8.55003452,505.74728394,7,9,1
1323442821.40154958,47.37535095,8.55003548,505.75286865,7,9,1
1323442821.45252776,47.37535095,8.55003548,505.75842285,7,9,1
1323442821.50151777,47.37535477,8.55003929,505.50585938,7,9,1
1323442821.55254960,47.37535477,8.55003738,505.49291992,7,9,1
1323442821.60158086,47.37535477,8.55003834,505.49728394,7,9,1
1323442821.65255094,47.37535477,8.55003834,505.50158691,7,9,1
1323442821.70507598,47.37535477,8.55003929,505.50588989,7,9,1
1323442821.75393081,47.37535477,8.55003929,505.51013184,7,9,1
1323442821.80502319,47.37535477,8.55004120,505.21209717,7,9,1
1323442821.85352945,47.37535477,8.55004120,505.21502686,7,9,1
1323442821.90453243,47.37535477,8.55004215,505.21795654,7,9,1
1323442821.95316124,47.37535858,8.55004215,505.22082520,7,9,1
1323442822.00551176,47.37535858,8.55004597,504.92388916,7,9,1
1323442822.05307245,47.37535858,8.55004501,504.90515137,7,9,1
1323442822.10552621,47.37535858,8.55004597,504.90664673,7,9,1
1323442822.15351534,47.37535858,8.55004597,504.90811157,7,9,1
1323442822.20555687,47.37535858,8.55004597,504.90954590,7,9,1
1323442822.25352120,47.37536240,8.55004978,504.59716797,7,9,1
1323442822.31288242,47.37536240,8.55004787,504.57711792,7,9,1
1323442822.35357189,47.37536240,8.55004883,504.57708740,7,9,1
1323442822.41543841,47.37536240,8.55004883,504.57705688,7,9,1
1323442822.45362091,47.37536240,8.55004978,504.57696533,7,9,1
1323442822.50213957,47.37536240,8.55005264,504.25717163,7,9,1
1323442822.55248785,47.37536240,8.55005169,504.23873901,7,9,1
1323442822.60481548,47.37536240,8.55005169,504.23721313,7,9,1
1323442822.65353799,47.37536240,8.55005264,504.23565674,7,9,1
1323442822.70551205,47.37536240,8.55005264,504.23406982,7,9,1
1323442822.75257397,47.37536240,8.55005360,504.23242188,7,9,1
1323442822.81351018,47.37536621,8.55005455,503.90176392,7,9,1
1323442822.85255551,47.37536621,8.55005550,503.89822388,7,9,1
1323442822.90452528,47.37536621,8.55005550,503.89581299,7,9,1
1323442822.95349622,47.37536621,8.55005550,503.89279175,7,9,1
1323442823.00551414,47.37536621,8.55005646,503.55816650,7,9,1
1323442823.05353427,47.37537003,8.55005741,503.55377197,7,9,1
1323442823.10550284,47.37537003,8.55005741,503.54931641,7,9,1
1323442823.15365124,47.37537003,8.55005836,503.54486084,7,9,1
1323442823.21350002,47.37537003,8.55005836,503.54034424,7,9,1
1323442823.25352693,47.37537003,8.55005932,503.20309448,7,9,1
1323442823.30551839,47.37537003,8.55006027,503.19839478,7,9,1
1323442823.35352182,47.37537003,8.55006027,503.19250488,7,9,1
1323442823.40167642,47.37537003,8.55006027,503.18655396,7,9,1
1323442823.45651388,47.37537003,8.55006123,503.18057251,7,9,1
1323442823.50551295,47.37537384,8.55006409,502.85931396,7,9,1
1323442823.55348325,47.37537003,8.55006218,502.83895874,7,9,1
1323442823.60174060,47.37537384,8.55006313,502.83157349,7,9,1
1323442823.65348673,47.37537384,8.55006313,502.82418823,7,9,1
1323442823.70187020,47.37537384,8.55006313,502.81674194,7,9,1
1323442823.75353932,47.37537384,8.55006409,502.80926514,7,9,1
1323442823.80563569,47.37537384,8.55006504,502.47134399,7,9,1
1323442823.85351539,47.37537384,8.55006599,502.46252441,7,9,1
1323442823.90549159,47.37537384,8.55006599,502.45370483,7,9,1
1323442823.95354581,47.37537384,8.55006695,502.44482422,7,9,1
1323442824.00187206,47.37537766,8.55006886,502.12545776,7,9,1
1323442824.05254745,47.37537384,8.55006790,502.10775757,7,9,1
1323442824.10553694,47.37537766,8.55006790,502.09756470,7,9,1
1323442824.15166473,47.37537766,8.55006790,502.08734131,7,9,1
1323442824.20556402,47.37537766,8.55006886,502.07705688,7,9,1
1323442824.25352788,47.37537766,8.55006886,502.06674194,7,9,1
1323442824.31318855,47.37537766,8.55006886,501.74301147,7,9,1
1323442824.35598469,47.37537766,8.55006981,501.72909546,7,9,1
1323442824.41351628,47.37537766,8.55006981,501.71981812,7,9,1
1323442824.45354080,47.37537766,8.55006981,501.70584106,7,9,1
1323442824.50463843,47.37537766,8.55006981,501.69650269,7,9,1
1323442824.55349946,47.37537766,8.55007076,501.37719727,7,9,1
1323442824.60557270,47.37537766,8.55007076,501.36425781,7,9,1
1323442824.65376830,47.37537766,8.55007172,501.35131836,7,9,1
1323442824.71310091,47.37537766,8.55007172,501.33831787,7,9,1
1323442824.75365996,47.37538147,8.55007362,501.02703857,7,9,1
1323442824.80553985,47.37538147,8.55007267,501.01150513,7,9,1
1323442824.85257244,47.37538147,8.55007362,500.99725342,7,9,1
1323442824.90455031,47.37538147,8.55007362,500.98297119,7,9,1
1323442824.95350266,47.37538147,8.55007362,500.96862793,7,10,1
1323442825.00513530,47.37538147,8.55007458,500.66140747,7,10,1
1323442825.05283117,47.37538147,8.55007458,500.64587402,7,10,1
1323442825.10497141,47.37538147,8.55007458,500.63031006,7,10,1
1323442825.15278983,47.37538147,8.55007553,500.61474609,7,10,1
1323442825.20571423,47.37538147,8.55007553,500.59915161,7,10,1
1323442825.25303483,47.37538147,8.55007648,500.30075073,7,10,1
1323442825.30564547,47.37538147,8.55007648,500.28396606,7,10,1
1323442825.35251760,47.37538147,8.55007744,500.26715088,7,10,1
1323442825.40481853,47.37538528,8.55007744,500.25030518,7,10,1
1323442825.45352578,47.37538528,8.55007744,500.23342896,7,10,1
1323442825.51353335,47.37538528,8.55007935,499.94064331,7,10,1
1323442825.55366182,47.37538528,8.55008030,499.91900635,7,10,1
1323442825.60572410,47.37538528,8.55008030,499.90454102,7,10,1
1323442825.65252614,47.37538528,8.55008030,499.88644409,7,10,1
1323442825.70475531,47.37538528,8.55008030,499.86831665,7,10,1
1323442825.75278902,47.37538528,8.55008125,499.57955933,7,10,1
1323442825.80463314,47.37538528,8.55008125,499.56030273,7,10,1
1323442825.85354495,47.37538528,8.55008221,499.54101562,7,10,1
1323442825.90557957,47.37538528,8.55008221,499.52166748,7,10,1
1323442825.95275164,47.37538528,8.55008221,499.50231934,7,10,1
1323442826.00556326,47.37538910,8.55008316,499.22378540,7,10,1
1323442826.05266857,47.37538910,8.55008316,499.20333862,7,10,1
1323442826.10476470,47.37538910,8.55008316,499.18289185,7,10,1
1323442826.15523934,47.37538910,8.55008316,499.16238403,7,10,1
1323442826.20465517,47.37538910,8.55008411,499.14181519,7,10,1
1323442826.25355744,47.37538910,8.55008316,498.87997437,7,10,1
1323442826.31252003,47.37538910,8.55008411,498.85842896,7,10,1
1323442826.35262680,47.37538910,8.55008411,498.83251953,7,10,1
1323442826.41352654,47.37538910,8.55008411,498.81524658,7,10,1
1323442826.45262456,47.37538910,8.55008507,498.78927612,7,10,1
1323442826.50490427,47.37538910,8.55008411,498.54748535,7,10,1
1323442826.55352426,47.37538910,8.55008507,498.52496338,7,10,1
1323442826.60177088,47.37538910,8.55008507,498.50238037,7,10,1
1323442826.65358615,47.37539291,8.55008507,498.47979736,7,10,1
1323442826.70450497,47.37539291,8.55008507,498.45715332,7,10,1
1323442826.75338721,47.37539291,8.55008602,498.22637939,7,10,1
1323442826.81350708,47.37539291,8.55008507,498.20349121,7,10,1
1323442826.85358381,47.37539291,8.55008507,498.17523193,7,10,1
1323442826.90153694,47.37539291,8.55008507,498.15637207,7,10,1
1323442826.95351791,47.37539291,8.55008602,498.13275146,6,9,1
1323442827.00579691,47.37539291,8.55008602,497.91040039,6,9,1
1323442827.05252385,47.37539291,8.55008602,497.88592529,6,9,1
1323442827.11350536,47.37539291,8.55008602,497.86145020,6,9,1
1323442827.15253210,47.37539291,8.55008698,497.83203125,6,9,1
1323442827.20150495,47.37539291,8.55008698,497.81240845,6,9,1
1323442827.25321984,47.37539291,8.55008602,497.61401367,6,9,1
1323442827.30127263,47.37539673,8.55008602,497.58874512,6,9,1
1323442827.35351849,47.37539673,8.55008698,497.56347656,6,9,1
1323442827.40466332,47.37539673,8.55008698,497.53814697,6,9,1
1323442827.45353413,47.37539673,8.55008698,497.51275635,6,9,1
1323442827.51313877,47.37539673,8.55008602,497.32492065,6,9,1
1323442827.55364060,47.37539673,8.55008602,497.29364014,6,9,1
1323442827.61351895,47.37539673,8.55008602,497.27273560,6,9,1
1323442827.65621471,47.37539673,8.55008698,497.24136353,6,9,1
1323442827.70563865,47.37539673,8.55008698,497.22042847,6,9,1
1323442827.75351906,47.37539673,8.55008602,497.05035400,6,9,1
1323442827.80556011,47.37539673,8.55008602,497.02359009,6,9,1
1323442827.85253620,47.37539673,8.55008602,496.99682617,6,9,1
1323442827.91365671,47.37539673,8.55008602,496.97000122,6,9,1
1323442827.95368791,47.37539673,8.55008698,496.93774414,6,9,1
1323442828.00561047,47.37540054,8.55008602,496.78076172,6,9,1
1323442828.05352378,47.37539673,8.55008698,496.75976562,6,9,1
1323442828.10456109,47.37540054,8.55008698,496.73236084,6,9,1
1323442828.15470362,47.37540054,8.55008698,496.70489502,6,9,1
1323442828.20198083,47.37540054,8.55008793,496.67739868,6,9,1
1323442828.25352263,47.37540054,8.55008602,496.52688599,6,9,1
1323442828.30462694,47.37540054,8.55008602,496.49887085,6,9,1
1323442828.35248733,47.37540054,8.55008602,496.47082520,6,9,1
1323442828.41366076,47.37540054,8.55008602,496.44271851,6,9,1
1323442828.45445347,47.37540054,8.55008602,496.40896606,6,9,1
1323442828.50187588,47.37540054,8.55008507,496.27801514,6,9,1
1323442828.55351734,47.37540054,8.55008507,496.24948120,6,9,1
1323442828.60552025,47.37540054,8.55008507,496.22088623,6,9,1
1323442828.65350819,47.37540054,8.55008507,496.19226074,6,9,1
1323442828.70452929,47.37540054,8.55008602,496.16360474,6,9,1
1323442828.75359845,47.37540054,8.55008507,496.02670288,6,9,1
1323442828.81350851,47.37540054,8.55008507,495.99658203,6,9,1
1323442828.85251760,47.37540054,8.55008507,495.96154785,6,9,1
1323442828.90552330,47.37540054,8.55008507,495.93817139,6,9,1
1323442828.95352793,47.37540054,8.55008507,495.90893555,2,9,1
1323442829.01075983,47.37540054,8.55008316,495.79562378,2,9,1
1323442829.05349278,47.37540054,8.55008411,495.76602173,2,9,1
1323442829.10454440,47.37540054,8.55008411,495.73638916,2,9,1
1323442829.16563725,47.37540054,8.55008411,495.70672607,2,9,1
1323442829.20153999,47.37540054,8.55008411,495.67108154,2,9,1
1323442829.26553631,47.37540054,8.55008316,495.56222534,2,9,1
1323442829.30558133,47.37540054,8.55008316,495.52615356,2,9,1
1323442829.35353994,47.37540054,8.55008316,495.50210571,2,9,1
1323442829.40167665,47.37540054,8.55008316,495.47198486,2,9,1
1323442829.45403647,47.37540054,8.55008316,495.44183350,2,9,1
1323442829.50554919,47.37540054,8.55008221,495.32125854,2,9,1
1323442829.55556417,47.37540054,8.55008221,495.29071045,2,9,1
1323442829.60164738,47.37540054,8.55008221,495.26013184,2,9,1
1323442829.65571356,47.37540054,8.55008221,495.22955322,2,9,1
1323442829.70561624,47.37540054,8.55008221,495.19891357,2,9,1
1323442829.75356174,47.37540054,8.55008030,495.08496094,2,9,1
1323442829.80551457,47.37540054,8.55008030,495.05392456,2,9,1
1323442829.85352707,47.37540054,8.55008030,495.02285767,2,9,1
1323442829.91352320,47.37540054,8.55008030,494.99176025,2,9,1
1323442829.95254159,47.37540054,8.55008030,494.95437622,2,9,1
1323442830.00149298,47.37540054,8.55007839,494.85678101,2,9,1
1323442830.05351138,47.37540054,8.55007839,494.82531738,2,9,1
1323442830.10557318,47.37540054,8.55007839,494.79385376,2,9,1
1323442830.16151977,47.37540054,8.55007839,494.76235962,2,9,1
1323442830.20551491,47.37540054,8.55007839,494.72448730,2,9,1
1323442830.25353312,47.37540054,8.55007648,494.63546753,2,9,1
1323442830.31353164,47.37540054,8.55007648,494.60366821,2,9,1
1323442830.35410309,47.37540054,8.55007648,494.56542969,2,9,1
1323442830.41351247,47.37540054,8.55007648,494.53991699,2,9,1
1323442830.45355082,47.37540054,8.55007648,494.50158691,2,9,1
1323442830.50355196,47.37540054,8.55007553,494.43051147,2,9,1
1323442830.55353880,47.37540054,8.55007553,494.39843750,2,9,1
1323442830.60166740,47.37540054,8.55007553,494.36636353,2,9,1
1323442830.65358996,47.37540054,8.55007553,494.33422852,2,9,1
1323442830.70510578,47.37540054,8.55007553,494.30206299,2,9,1
1323442830.75365090,47.37540436,8.55007553,494.22033691,2,9,1
1323442830.80552053,47.37540436,8.55007553,494.18792725,2,9,1
1323442830.85248733,47.37540436,8.55007553,494.15545654,2,9,1
1323442830.90453029,47.37540436,8.55007553,494.12295532,2,9,1
1323442830.95351744,47.37540436,8.55007553,494.09039307,0,8,1
1323442831.00452042,47.37540436,8.55007458,494.01150513,0,8,1
1323442831.05351973,47.37540436,8.55007458,493.97869873,0,8,1
1323442831.10554957,47.37540436,8.55007458,493.94586182,0,8,1
1323442831.15365505,47.37540436,8.55007458,493.91299438,0,8,1
1323442831.21351242,47.37540436,8.55007458,493.88009644,0,8,1
1323442831.25365591,47.37540436,8.55007458,493.80456543,0,8,1
1323442831.30245686,47.37540436,8.55007458,493.77810669,0,8,1
1323442831.35490608,47.37540436,8.55007458,493.74499512,0,8,1
1323442831.40567327,47.37540436,8.55007458,493.71185303,0,8,1
1323442831.45358467,47.37540436,8.55007458,493.67868042,0,8,1
1323442831.50553894,47.37540054,8.55007458,493.62042236,0,8,1
1323442831.55366063,47.37540054,8.55007458,493.58712769,0,8,1
1323442831.61350441,47.37540054,8.55007458,493.55377197,0,8,1
1323442831.65252018,47.37540054,8.55007458,493.51373291,0,8,1
1323442831.70169353,47.37540054,8.55007458,493.48699951,0,8,1
1323442831.75354314,47.37540436,8.55007553,493.43161011,0,8,1
1323442831.80473280,47.37540436,8.55007553,493.39810181,0,8,1
1323442831.85354018,47.37540436,8.55007553,493.36456299,0,8,1
1323442831.91294980,47.37540436,8.55007553,493.33099365,0,8,1
1323442831.95357394,47.37540054,8.55007553,493.29064941,0,8,1
1323442832.00153828,47.37540436,8.55007553,493.24853516,0,8,1
1323442832.05255437,47.37540436,8.55007553,493.21484375,0,8,1
1323442832.10474324,47.37540436,8.55007553,493.18109131,0,8,1
1323442832.15359116,47.37540436,8.55007553,493.14733887,0,8,1
1323442832.20160890,47.37540436,8.55007553,493.11352539,0,8,1
1323442832.25356078,47.37540436,8.55007458,493.08065796,0,8,1
1323442832.30155802,47.37540436,8.55007458,493.04684448,0,8,1
1323442832.35257745,47.37540436,8.55007458,493.01300049,0,8,1
1323442832.41374063,47.37540436,8.55007458,492.97915649,0,8,1
1323442832.45257044,47.37540436,8.55007458,492.93847656,0,8,1
1323442832.50483942,47.37540436,8.55007362,492.91323853,0,8,1
1323442832.55351996,47.37540436,8.55007362,492.87933350,0,8,1
1323442832.60456562,47.37540436,8.55007362,492.84542847,0,8,1
1323442832.65353823,47.37540436,8.55007362,492.81146240,0,8,1
1323442832.71351790,47.37540436,8.55007362,492.77749634,0,8,1
1323442832.75466180,47.37540436,8.55007267,492.74127197,0,8,1
1323442832.80151701,47.37540436,8.55007172,492.71408081,0,8,1
1323442832.85355306,47.37540436,8.55007172,492.68005371,0,8,1
1323442832.90469360,47.37540436,8.55007172,492.64602661,0,8,1
1323442832.96234751,47.37540436,8.55007172,492.61193848,0,8,1
1323442833.00463629,47.37540436,8.55006981,492.58932495,0,8,1
1323442833.05270576,47.37540436,8.55006981,492.56210327,0,8,1
1323442833.10451579,47.37540436,8.55006981,492.52807617,0,8,1
1323442833.15463495,47.37540436,8.55006981,492.49398804,0,8,1
1323442833.21358657,47.37540436,8.55006981,492.45986938,0,8,1
1323442833.25252771,47.37540436,8.55006886,492.43988037,0,8,1
1323442833.30467319,47.37540436,8.55006790,492.41265869,0,8,1
1323442833.36150169,47.37540436,8.55006790,492.37857056,0,8,1
1323442833.40153885,47.37540436,8.55006790,492.33764648,0,8,1
1323442833.45401859,47.37540436,8.55006790,492.31033325,0,8,1
1323442833.50551558,47.37540436,8.55006695,492.30111694,0,8,1
1323442833.55408335,47.37540436,8.55006695,492.26708984,0,8,1
1323442833.60148954,47.37540436,8.55006695,492.23300171,0,8,1
1323442833.65251040,47.37540436,8.55006695,492.19885254,0,8,1
1323442833.70150375,47.37540436,8.55006695,492.16473389,0,8,1
1323442833.75352526,47.37540436,8.55006695,492.17025757,0,8,1
1323442833.80503726,47.37540436,8.55006599,492.13632202,0,8,1
1323442833.85366273,47.37540436,8.55006599,492.10232544,0,8,1
1323442833.90552378,47.37540436,8.55006599,492.06829834,0,8,1
1323442833.95444703,47.37540436,8.55006599,492.03424072,0,8,1
1323442834.00551724,47.37540436,8.55006695,492.04095459,0,8,1
1323442834.06534863,47.37540436,8.55006695,492.00708008,0,8,1
1323442834.10464001,47.37540436,8.55006695,491.96636963,0,8,1
1323442834.15349627,47.37540436,8.55006695,491.93920898,0,8,1
1323442834.20463109,47.37540436,8.55006695,491.90521240,0,8,1
1323442834.25471234,47.37540436,8.55006599,491.92755127,0,8,1
1323442834.30487657,47.37540436,8.55006599,491.89376831,0,8,1
1323442834.35366750,47.37540436,8.55006599,491.85998535,0,8,1
1323442834.41381907,47.37540054,8.55006599,491.82617188,0,8,1
1323442834.45495009,47.37540054,8.55006599,491.78555298,0,8,1
1323442834.50565934,47.37540054,8.55006599,491.82000732,0,8,1
1323442834.55353451,47.37540054,8.55006599,491.78643799,0,8,1
1323442834.60466838,47.37540054,8.55006599,491.75280762,0,8,1
1323442834.65353394,47.37540054,8.55006599,491.71917725,0,8,1
1323442834.70551419,47.37540054,8.55006599,491.68551636,0,8,1
1323442834.76549506,47.37540054,8.55006504,491.72994995,0,8,1
